Location: St Paul
(33.4390°N, 83.7350°W)
Time: 09:58:36
(UTC-05:00)

Cosmos 1295 Rocket - Pass Details

Date: 06 October 2017
Orbit: 944 x 994 km, 82.9° (Epoch: 15 December)

Event Time Altitude Azimuth Distance (km) Brightness Sun altitude
Rises 19:55:25 0° 176° (S) 3,598 7.4 -9.8°
Reaches altitude 10° 19:57:55 10° 173° (S) 2,654 6.7 -10.3°
Maximum altitude 20:03:53 65° 93° (E) 1,031 4.4 -11.6°
Drops below altitude 10° 20:09:55 10° 13° (NNE) 2,672 6.7 -12.8°
Sets 20:12:26 0° 10° (N) 3,624 7.4 -13.4°
